Regional Weather Roundup
Issued by NWS

Home | Current Version | Previous Version | Text Only | Print | Product List | Glossary Off
Versions: 1 2 3 4 5 6 7 8 9 10 11 12 13 14 15 16 17 18 19 20 21 22 23 24 25 26 27 28 29 30 31 32 33 34 35 36 37 38 39 40 41 42 43 44 45 46 47 48 49 50

000
ASUS43 KOAX 201802
RWRNE

WEATHER ROUNDUP FOR NEBRASKA
NATIONAL WEATHER SERVICE OMAHA NE
1200 PM CST MON FEB 20 2017

NOTES: SATELLITE DATA IS BEING USED TO AUGMENT CLOUD COVER ABOVE
       12000 FEET.
       "FAIR" INDICATES FEW OR NO CLOUDS BELOW 12,000 FEET WITH NO
       SIGNIFICANT WEATHER AND/OR OBSTRUCTIONS TO VISIBILITY.

  * THESE STATIONS DO NOT REPORT WEATHER SUCH AS RAIN...SNOW OR FOG.

NEZ001>004-019>022-054>056-201900-
NEBRASKA PANHANDLE

CITY           SKY/WX    TMP DP  RH WIND       PRES   REMARKS
SCOTTSBLUFF    SUNNY     55  19  24 W12       29.96R
6HR MIN TEMP:  30; 6HR MAX TEMP:  55;

ALLIANCE       SUNNY     55  25  31 NW18G26   29.90S
6HR MIN TEMP:  37; 6HR MAX TEMP:  55;

CHADRON        SUNNY     54  31  41 NW18      29.89S
6HR MIN TEMP:  40; 6HR MAX TEMP:  54; 6HR PCP: TRACE;

KIMBALL        SUNNY     55  21  27 NW20G29   29.97S
SIDNEY         SUNNY     53  19  26 NW22G31   29.96R
6HR MIN TEMP:  37; 6HR MAX TEMP:  54;

$$

NEZ057>060-069>072-079>082-201900-
SOUTHWEST NEBRASKA

CITY           SKY/WX    TMP DP  RH WIND       PRES   REMARKS
NORTH PLATTE   CLOUDY    57  36  45 NW23G31   29.88R
6HR MIN TEMP:  39; 6HR MAX TEMP:  58;

IMPERIAL       SUNNY     57  26  30 N25G35    29.91R
6HR MIN TEMP:  43; 6HR MAX TEMP:  57; 6HR PCP: TRACE;

LEXINGTON      CLOUDY    55  36  48 N24G33    29.85R
MCCOOK         SUNNY     61  36  39 N29G36    29.86R
6HR MIN TEMP:  47; 6HR MAX TEMP:  61;

OGALLALA       SUNNY     58  31  36 NW23G32   29.91R
$$

NEZ005>010-023>029-035>040-094-201900-
NORTH CENTRAL NEBRASKA

CITY           SKY/WX    TMP DP  RH WIND       PRES   REMARKS
VALENTINE      CLOUDY    55  34  45 NW18G29   29.82R
6HR MIN TEMP:  43; 6HR MAX TEMP:  55; 6HR PCP: TRACE;

AINSWORTH      CLOUDY    50  41  70 NW24      29.82R
BROKEN BOW     CLOUDY    52  40  63 N31G38    29.81R
6HR MIN TEMP:  44; 6HR MAX TEMP:  55;

O`NEILL        CLOUDY    54  44  67 NW29G40   29.78R
ORD            CLOUDY    55  40  56 NW25G33   29.78R
6HR MIN TEMP:  51; 6HR MAX TEMP:  59;

THEDFORD       CLOUDY    54  37  51 N26G32    29.86R
$$

NEZ041-046>049-061>064-073>077-083>087-201900-
SOUTH CENTRAL NEBRASKA

CITY           SKY/WX    TMP DP  RH WIND       PRES   REMARKS
GRAND ISLAND   PTSUNNY   59  44  57 NW17      29.76R
6HR MIN TEMP:  54; 6HR MAX TEMP:  60;

AURORA         CLOUDY    59  47  64 W12       29.75R
HASTINGS       CLOUDY    59  41  51 NW21      29.76S
6HR MIN TEMP:  54; 6HR MAX TEMP:  60;

HEBRON         CLOUDY    61  52  73 SW12      29.76R
HOLDREGE       CLOUDY    58  38  49 N21G33    29.81R
KEARNEY *      MOSUNNY   61  39  44 NW24G30   29.80R
YORK           CLOUDY    59  52  77 SW14      29.76R
$$

NEZ011>018-030>034-042>045-201900-
NORTHEAST NEBRASKA

CITY           SKY/WX    TMP DP  RH WIND       PRES   REMARKS
NORFOLK        CLOUDY    58  50  75 W12       29.70F
6HR MIN TEMP:  56; 6HR MAX TEMP:  59;

ALBION         MOSUNNY   59  43  55 NW18G25   29.75R
BLAIR          CLOUDY    60  57  91 S15       29.72F
FREMONT        CLOUDY    60  57  91 S10       29.74R
TEKAMAH        CLOUDY    61  55  82 S15       29.71F
6HR MIN TEMP:  56; 6HR MAX TEMP:  61; 6HR PCP:  0.05;

WAYNE          CLOUDY    59  56  88 SW13      29.71R
$$

NEZ050>053-065>068-078-088>093-201900-
SOUTHEAST NEBRASKA

CITY           SKY/WX    TMP DP  RH WIND       PRES   REMARKS
LINCOLN        CLOUDY    61  56  83 SW14      29.76R
6HR MIN TEMP:  58; 6HR MAX TEMP:  61; 6HR PCP:  0.01;

OMAHA EPPLEY   CLOUDY    61  56  83 S9        29.73R
6HR MIN TEMP:  57; 6HR MAX TEMP:  61; 6HR PCP:  0.01;

BEATRICE       CLOUDY    61  57  85 S16       29.77R
FALLS CITY     CLOUDY    62  58  86 S16       29.79F
6HR MIN TEMP:  57; 6HR MAX TEMP:  62; 6HR PCP:  0.03;

NEBRASKA CITY  CLOUDY    60  60  98 SW15      29.77S
PLATTSMOUTH    CLOUDY    60  56  87 S13       29.76S
$$

NEZ044-045-051>053-067-201900-
OMAHA AREA

CITY           SKY/WX    TMP DP  RH WIND       PRES   REMARKS
OMAHA EPPLEY   CLOUDY    61  56  83 S9        29.73R
6HR MIN TEMP:  57; 6HR MAX TEMP:  61; 6HR PCP:  0.01;

BLAIR          CLOUDY    60  57  91 S15       29.72F
FREMONT        CLOUDY    60  57  91 S10       29.74R
MILLARD        CLOUDY    62  59  88 S7        29.74F
OFFUTT AFB     CLOUDY    61  57  88 S13       29.74F
PLATTSMOUTH    CLOUDY    60  56  87 S13       29.76S
WAHOO          CLOUDY    60  56  88 SW12      29.73S
$$




USA.gov is the U.S. government's official web portal to all federal, state and local government web resources and services.